Hourly Data Report for July 12, 2020

OTTAWA INTL A
ONTARIO
Current Station Operator: NAVCAN

45°19'00.000" N
75°40'00.000" W
114.90 m
6106001
71628
YOW

Download Data

Hourly Data (July 2020)
Hourly Data Report for July 12, 2020
TIME Temp Definition
°C
Dew Point Definition
°C
Rel Hum Definition
%
Wind Dir Definition
10's deg

Wind Spd Definition
km/h
Visibility Definition
km
Stn Press Definition
kPa
Hmdx Definition


Wind Chill Definition


Weather Definition


00:00 21.3 20.8 97 29 10 8.1 98.61 30   Fog
01:00 20.9 20.3 96 28 11 12.9 98.59 29   Cloudy
02:00 21.1 20.5 97 28 13 11.3 98.58 29   LegendNANA
03:00 21.3 20.6 96 27 17 12.9 98.58 29   LegendNANA
04:00 21.1 20.3 95 27 18 12.9 98.60 29   Cloudy
05:00 21.0 19.9 94 27 10 24.1 98.61 28   LegendNANA
06:00 20.6 19.9 96 30 23 4.8 98.66 28   Rain Showers,Fog
07:00 20.5 19.7 95 28 26 24.1 98.79 28   Cloudy
08:00 21.1 19.6 91 29 25 24.1 98.87 28   LegendNANA
09:00 22.2 18.1 78 30 29 24.1 98.93 28   LegendNANA
10:00 22.3 18.9 80 27 24 24.1 98.98 29   Cloudy
11:00 23.3 18.0 72 28 24 24.1 99.06 29   LegendNANA
12:00 24.2 18.1 68 29 27 24.1 99.05 30   LegendNANA
13:00 25.6 19.0 66 27 21 24.1 99.04 32   Mostly Cloudy
14:00 25.0 17.5 63 28 24 24.1 99.09 31   LegendNANA
15:00 26.4 16.5 54 30 17 24.1 99.11 31   LegendNANA
16:00 27.2 16.4 51 29 15 24.1 99.10 32   Mainly Clear
17:00 26.4 16.4 53 28 16 24.1 99.09 31   LegendNANA
18:00 26.1 16.6 55 30 16 24.1 99.13 31   LegendNANA
19:00 25.1 17.2 61 34 17 24.1 99.18 31   Mostly Cloudy
20:00 23.4 16.5 65 34 13 24.1 99.22 28   LegendNANA
21:00 22.8 17.1 70 35 11 24.1 99.25 28   LegendNANA
22:00 21.4 16.5 73 1 19 24.1 99.29 26   Mostly Cloudy
23:00 20.2 16.1 77 5 7 24.1 99.34 25   LegendNANA

Notes on Data Quality.

Legend

  • E = Estimated
  • M = Missing
  • NA = Not Available*
  • [empty] = Indicates an unobserved value
Date modified: